[[{"header":{"parameterUnit":"m.s-1","parameterCategory":1,"la1":30.2991,"la2":30.254,"lo1":-89.0895,"lo2":-89.0444,"dy":0.0017,"dx":0.0017,"nx":28,"ny":28,"refTime":"2026-02-07T09:00:00:Z","depth":0,"parameterNumber":2,"parameterNumberName":"U-component_of_WINDS"},"data":[0,0,0,0,0,0,0,0,0,0,0,0,0,0,0,0,0,0,0,0,0,0,0,0,0,0,0,0,0,0,0,0,0,0,0,0,0,0,0,0,0,0,0,0,0,0,0,0,0,0,0,0,0,0,0,0,0,0,-0.4949,-0.4949,0,-0.4965,-0.4965,-0.4965,-0.4989,-0.499,-0.499,-0.499,-0.5006,-0.5006,-0.5006,0,0,0,0,0,0,0,0,0,0,0,0,0,-0.4938,-0.4938,-0.4949,-0.4949,-0.4949,-0.4965,-0.4965,-0.4965,-0.4989,-0.499,-0.499,-0.4991,-0.5006,-0.5006,-0.5006,0,0,0,0,0,0,0,0,0,0,0,0,0,-0.4947,-0.4938,-0.4949,-0.4963,-0.4964,-0.4965,-0.4965,-0.4965,-0.4989,-0.499,-0.499,-0.4991,-0.5006,-0.5006,-0.5006,-0.4994,0,0,-0.5007,-0.5007,0,0,0,0,0,0,0,0,-0.4947,-0.4947,-0.4961,-0.4962,-0.4964,-0.4976,-0.4967,-0.4975,-0.4989,-0.498,-0.499,-0.4991,-0.4996,-0.4997,-0.4998,-0.4995,-0.4996,-0.5007,-0.5007,-0.5007,-0.5007,0,0,0,0,0,0,0,-0.4946,-0.4947,-0.4955,-0.4961,-0.4963,-0.4968,-0.497,-0.4969,-0.4984,-0.498,-0.4982,-0.4984,-0.4997,-0.4998,-0.4999,-0.4996,-0.5007,-0.5007,-0.5007,-0.5007,-0.4982,-0.4982,0,0,0,0,0,0,-0.4943,-0.4946,-0.4955,-0.4956,-0.4956,-0.4968,-0.497,-0.4971,-0.4984,-0.4987,-0.4983,-0.4985,-0.4998,-0.4999,-0.4999,-0.4985,-0.5007,-0.5007,-0.5007,-0.4983,-0.4982,-0.4981,0,0,0,0,0,0,-0.4943,-0.4944,-0.4954,-0.4951,-0.4953,-0.4967,-0.4968,-0.4971,-0.4973,-0.4986,-0.4989,-0.4982,-0.4998,-0.4999,-0.4995,-0.4986,-0.5007,-0.5007,-0.4984,-0.4983,-0.4982,-0.4957,0,0,0,0,0,0,-0.4942,-0.4944,-0.4939,-0.4951,-0.4953,-0.495,-0.4968,-0.4971,-0.4973,-0.4975,-0.4986,-0.4988,-0.4999,-0.4995,-0.4995,-0.4986,-0.5007,-0.4985,-0.4983,-0.4982,-0.4958,-0.4955,-0.4952,0,0,0,0,0,-0.4942,-0.4932,-0.4939,-0.494,-0.4948,-0.4949,-0.495,-0.4963,-0.4972,-0.4968,-0.4976,-0.4988,-0.4987,-0.4994,-0.4995,-0.4986,-0.4985,-0.4984,-0.4982,-0.496,-0.4956,-0.4952,0,0,0,0,0,0,-0.4918,-0.4933,-0.4942,-0.4935,-0.494,-0.4953,-0.4948,-0.4958,-0.4961,-0.4963,-0.4979,-0.4981,-0.4974,-0.498,-0.4988,-0.4974,-0.4988,-0.4986,-0.4971,-0.4967,-0.4964,-0.4962,-0.5007,0,0,0,0,0,-0.4912,-0.4912,-0.4925,-0.4918,-0.492,-0.4933,-0.4934,-0.4944,-0.495,-0.4952,-0.4961,-0.4966,-0.4967,-0.4968,-0.4969,-0.496,-0.4962,-0.4954,-0.495,-0.4948,-0.4946,-0.494,-0.4936,-0.4976,-0.4976,-0.4976,0,0,-0.49,-0.4908,-0.4907,-0.4913,-0.4919,-0.4917,-0.4935,-0.4934,-0.4933,-0.4952,-0.4948,-0.4955,-0.4962,-0.4954,-0.4952,-0.4959,-0.4935,-0.4946,-0.4944,-0.4943,-0.4938,-0.4934,-0.4931,-0.4975,-0.4976,-0.4976,0,0,-0.4876,-0.4883,-0.4877,-0.4882,-0.489,-0.4899,-0.4897,-0.4908,-0.4913,-0.4909,-0.4924,-0.4923,-0.4925,-0.4929,-0.4931,-0.4909,-0.4919,-0.4909,-0.4892,-0.4886,-0.4883,-0.488,-0.4871,-0.4867,-0.4907,-0.4907,-0.4907,0,-0.4859,-0.4858,-0.4872,-0.4869,-0.4871,-0.4889,-0.4883,-0.4887,-0.4895,-0.4896,-0.4904,-0.4906,-0.4912,-0.4905,-0.49,-0.4902,-0.49,-0.4907,-0.4882,-0.4879,-0.4877,-0.4868,-0.4865,-0.4906,-0.4906,-0.4906,-0.4906,0,-0.4837,-0.4836,-0.483,-0.4837,-0.4839,-0.4834,-0.4847,-0.4847,-0.4856,-0.4864,-0.486,-0.4868,-0.4871,-0.487,-0.4879,-0.4865,-0.4869,-0.4879,-0.4893,-0.4872,-0.4864,-0.4861,-0.4904,-0.4904,-0.4905,-0.4905,0,0,-0.4798,-0.4813,-0.481,-0.4813,-0.4823,-0.4823,-0.4819,-0.4822,-0.4821,-0.4826,-0.4822,-0.4823,-0.4833,-0.4835,-0.4845,-0.484,-0.482,-0.4851,-0.4851,-0.4844,-0.4803,-0.4795,-0.4791,-0.4828,-0.4827,-0.4827,-0.4802,0,-0.4776,-0.477,-0.4782,-0.4773,-0.4772,-0.4788,-0.4785,-0.479,-0.4797,-0.4797,-0.4805,-0.4805,-0.4818,-0.482,-0.4816,-0.4823,-0.4812,-0.4826,-0.4824,-0.4823,-0.482,-0.4787,-0.4778,-0.4754,-0.48,-0.4799,-0.4799,0,-0.4749,-0.4752,-0.4742,-0.4752,-0.4752,-0.4748,-0.4752,-0.4752,-0.4758,-0.4764,-0.4766,-0.4777,-0.4774,-0.4788,-0.4782,-0.4791,-0.4791,-0.4795,-0.4794,-0.4794,-0.4809,-0.4784,-0.4747,-0.4743,-0.4794,-0.4795,-0.4795,0,-0.472,-0.4722,-0.4716,-0.4719,-0.473,-0.4727,-0.4732,-0.4739,-0.4739,-0.4743,-0.4743,-0.4746,-0.4747,-0.4748,-0.476,-0.4769,-0.4752,-0.4768,-0.4756,-0.4756,-0.4751,-0.4751,-0.4712,-0.4753,-0.4753,-0.4753,-0.4753,0,-0.4693,-0.4686,-0.4703,-0.47,-0.4693,-0.4707,-0.4699,-0.4706,-0.4711,-0.4709,-0.4724,-0.4721,-0.4737,-0.4736,-0.4745,-0.4738,-0.4739,-0.4743,-0.4745,-0.4741,-0.474,-0.474,-0.4742,-0.4752,-0.4752,-0.4753,-0.4753,0,-0.4659,-0.4671,-0.4665,-0.4677,-0.4679,-0.4673,-0.4683,-0.468,-0.4688,-0.4684,-0.4684,-0.4697,-0.4697,-0.4708,-0.471,-0.4716,-0.4705,-0.4711,-0.4703,-0.4704,-0.4691,-0.4692,-0.4651,-0.4646,-0.469,-0.469,-0.469,0,-0.4641,-0.4636,-0.4646,-0.4646,-0.4649,-0.4648,-0.4649,-0.4663,-0.4663,-0.467,-0.4666,-0.4666,-0.4667,-0.4666,-0.4675,-0.4676,-0.4681,-0.4667,-0.4681,-0.4677,-0.4679,-0.4679,-0.4678,-0.4663,-0.4662,-0.4662,-0.4662,0,-0.4606,-0.4612,-0.4612,-0.4615,-0.4615,-0.4618,-0.4621,-0.462,-0.4635,-0.4634,-0.4634,-0.4635,-0.4636,-0.4636,-0.4639,-0.4644,-0.4655,-0.4657,-0.4654,-0.4649,-0.4644,-0.4646,-0.4693,-0.4658,-0.4658,-0.4658,-0.4659,-0.4659,-0.4579,-0.4575,-0.4581,-0.4581,-0.4585,-0.4588,-0.4585,-0.4593,-0.4593,-0.4595,-0.4603,-0.4601,-0.4607,-0.4612,-0.4615,-0.4614,-0.4621,-0.4617,-0.4616,-0.4614,-0.4611,-0.4645,-0.4614,-0.4614,-0.4615,-0.4615,-0.4615,0,-0.4544,-0.4549,-0.4549,-0.4553,-0.4552,-0.4563,-0.4568,-0.4566,-0.4564,-0.4569,-0.457,-0.4569,-0.4569,-0.4578,-0.4579,-0.4575,-0.458,-0.4575,-0.4575,-0.4575,-0.4606,-0.4607,-0.4571,-0.4571,-0.4571,-0.4571,-0.4571,-0.4571,-0.4525,-0.4519,-0.4525,-0.4521,-0.4526,-0.4524,-0.4525,-0.4527,-0.4531,-0.4529,-0.4529,-0.4535,-0.4541,-0.4543,-0.4543,-0.4546,-0.4545,-0.4537,-0.4542,-0.4569,-0.4573,-0.4578,-0.4579,-0.4537,-0.4537,-0.4512,-0.4511,-0.4511]},{"header":{"parameterUnit":"m.s-1","parameterCategory":1,"la1":30.2991,"la2":30.254,"lo1":-89.0895,"lo2":-89.0444,"dy":0.0017,"dx":0.0017,"nx":28,"ny":28,"refTime":"2026-02-07T09:00:00:Z","depth":0,"parameterNumber":3,"parameterNumberName":"V-component_of_WINDS"},"data":[0,0,0,0,0,0,0,0,0,0,0,0,0,0,0,0,0,0,0,0,0,0,0,0,0,0,0,0,0,0,0,0,0,0,0,0,0,0,0,0,0,0,0,0,0,0,0,0,0,0,0,0,0,0,0,0,0,0,2.4252,2.4253,0,2.4365,2.4366,2.4367,2.4348,2.4346,2.4344,2.4342,2.4463,2.4468,2.4473,0,0,0,0,0,0,0,0,0,0,0,0,0,2.4026,2.403,2.4252,2.4253,2.4255,2.4364,2.4366,2.4367,2.4348,2.4346,2.4343,2.4341,2.4461,2.4467,2.4473,0,0,0,0,0,0,0,0,0,0,0,0,0,2.413,2.4031,2.4252,2.4258,2.426,2.4364,2.4366,2.4368,2.4348,2.4345,2.4342,2.434,2.4459,2.4467,2.4474,2.4581,0,0,2.4497,2.4501,0,0,0,0,0,0,0,0,2.4124,2.4138,2.4256,2.4258,2.426,2.4339,2.4331,2.444,2.4349,2.4315,2.4342,2.4338,2.4424,2.4435,2.4463,2.4587,2.4592,2.4498,2.4503,2.4506,2.4508,0,0,0,0,0,0,0,2.4117,2.4133,2.4297,2.4257,2.426,2.4257,2.4269,2.4351,2.4385,2.4318,2.4316,2.433,2.4425,2.4455,2.4465,2.4594,2.4498,2.4505,2.4509,2.4512,2.4813,2.4816,0,0,0,0,0,0,2.4107,2.4127,2.4293,2.43,2.4183,2.4264,2.4276,2.4317,2.4384,2.4392,2.4332,2.4328,2.4444,2.4456,2.4469,2.46,2.4506,2.4513,2.4517,2.4809,2.4813,2.4817,0,0,0,0,0,0,2.4102,2.4122,2.4288,2.4213,2.4234,2.4271,2.4316,2.432,2.4351,2.4395,2.4402,2.4357,2.4442,2.4459,2.4553,2.4604,2.4517,2.4523,2.4805,2.4811,2.4815,2.4862,0,0,0,0,0,0,2.4096,2.412,2.416,2.4214,2.4238,2.4369,2.4319,2.4325,2.4363,2.4359,2.442,2.4427,2.4441,2.4542,2.4561,2.4613,2.4529,2.4801,2.4808,2.4814,2.4856,2.4868,2.4878,0,0,0,0,0,2.4087,2.4169,2.4162,2.4182,2.4288,2.4372,2.4386,2.4398,2.4367,2.4408,2.4437,2.4425,2.4595,2.4552,2.4573,2.4628,2.4798,2.4806,2.4813,2.4851,2.4866,2.4878,0,0,0,0,0,0,2.4122,2.4177,2.4169,2.427,2.4316,2.4368,2.4421,2.4413,2.4471,2.4465,2.448,2.4494,2.459,2.4618,2.4569,2.4736,2.4692,2.4705,2.4714,2.4728,2.4739,2.4731,2.4536,0,0,0,0,0,2.4141,2.4202,2.4247,2.4333,2.4356,2.4384,2.4421,2.4427,2.4476,2.4496,2.4531,2.4581,2.4646,2.4688,2.475,2.4859,2.4874,2.4908,2.4919,2.4928,2.4939,2.5,2.5017,2.4842,2.4842,2.4842,0,0,2.4182,2.4219,2.4257,2.4341,2.4377,2.4442,2.4401,2.4471,2.4521,2.4507,2.4598,2.4626,2.4683,2.4786,2.4833,2.4812,2.499,2.4938,2.4944,2.4951,2.501,2.5027,2.5041,2.4847,2.4846,2.4846,0,0,2.429,2.4323,2.4398,2.4435,2.449,2.4508,2.4526,2.4579,2.4597,2.4688,2.468,2.4739,2.485,2.4891,2.4926,2.5049,2.5041,2.5069,2.5128,2.5187,2.5201,2.5214,2.5259,2.5275,2.5079,2.508,2.508,0,2.4334,2.443,2.4439,2.451,2.4548,2.4536,2.4614,2.465,2.4723,2.475,2.4725,2.4864,2.4902,2.5015,2.5044,2.5073,2.5096,2.5063,2.5198,2.5211,2.5222,2.5266,2.5283,2.5083,2.5082,2.5082,2.5082,0,2.4483,2.4549,2.4604,2.4673,2.4716,2.4791,2.4813,2.4856,2.4858,2.4879,2.4974,2.5017,2.5089,2.5115,2.5118,2.5229,2.5215,2.5194,2.5151,2.5242,2.5284,2.53,2.5087,2.5086,2.5085,2.5084,0,0,2.4617,2.4689,2.4709,2.474,2.48,2.4852,2.4927,2.4994,2.5032,2.5083,2.5147,2.5241,2.5222,2.5262,2.5269,2.5322,2.5418,2.5295,2.5296,2.5318,2.5546,2.5562,2.5581,2.5412,2.5416,2.5418,2.5541,0,2.4732,2.4861,2.4871,2.4988,2.5051,2.5041,2.5106,2.515,2.5172,2.523,2.5255,2.5322,2.5291,2.5315,2.5366,2.5396,2.5465,2.5387,2.5475,2.5478,2.5463,2.5603,2.5621,2.5735,2.5558,2.556,2.5562,0,2.4884,2.4937,2.506,2.511,2.5137,2.5195,2.5259,2.5313,2.5364,2.5377,2.5421,2.5421,2.55,2.5452,2.5562,2.5509,2.5545,2.5565,2.557,2.5581,2.5527,2.5619,2.5772,2.579,2.5588,2.5586,2.5584,0,2.4971,2.5074,2.5161,2.5188,2.5249,2.529,2.5318,2.5366,2.5406,2.5462,2.5488,2.5553,2.5589,2.564,2.5659,2.5622,2.5769,2.5722,2.5783,2.5783,2.5816,2.5815,2.5979,2.5836,2.5836,2.5836,2.5835,0,2.51,2.5176,2.5201,2.5255,2.5341,2.5352,2.5437,2.5463,2.5505,2.5566,2.5561,2.5618,2.5638,2.5699,2.5714,2.5804,2.582,2.5834,2.5837,2.5836,2.5834,2.5861,2.5855,2.584,2.5839,2.5838,2.5838,0,2.5214,2.5233,2.5328,2.5377,2.5391,2.5452,2.5496,2.5549,2.5569,2.5645,2.5664,2.5697,2.5769,2.5791,2.5878,2.5889,2.5994,2.599,2.5977,2.5978,2.6038,2.6033,2.6228,2.6255,2.6092,2.6094,2.6095,0,2.5295,2.5353,2.5408,2.5447,2.5476,2.5539,2.558,2.5593,2.5636,2.5698,2.5744,2.5814,2.5872,2.5987,2.602,2.6087,2.6086,2.6149,2.6096,2.6092,2.6089,2.6086,2.6093,2.616,2.6162,2.6163,2.6164,0,2.5439,2.5445,2.5503,2.5564,2.5612,2.5662,2.5709,2.5742,2.5763,2.5812,2.5884,2.5928,2.6016,2.6087,2.6155,2.6185,2.618,2.618,2.6198,2.6198,2.6189,2.6197,2.6006,2.6176,2.6175,2.6174,2.6174,2.6173,2.5541,2.5592,2.5639,2.5704,2.574,2.5785,2.5837,2.5863,2.5923,2.5994,2.5999,2.6078,2.6128,2.6218,2.6252,2.6315,2.6298,2.6323,2.633,2.6337,2.6343,2.6177,2.6328,2.6327,2.6327,2.6327,2.6327,0,2.5686,2.5715,2.5774,2.584,2.5891,2.5878,2.593,2.5975,2.6043,2.6089,2.6145,2.6229,2.6298,2.6335,2.6404,2.6448,2.6447,2.6466,2.6464,2.6472,2.6354,2.6332,2.6465,2.6465,2.6465,2.6465,2.6465,2.6465,2.5768,2.5855,2.5867,2.5973,2.6002,2.6077,2.6108,2.615,2.6187,2.628,2.6336,2.6359,2.6403,2.6475,2.6538,2.6548,2.6575,2.6596,2.6604,2.6494,2.648,2.6466,2.6446,2.6601,2.6601,2.6716,2.6718,2.6718]}]]